This is the latest recevied weather packets stored in our database for station/object HP1CDW-10. If no packets are shown the sender has not sent any weather packets the latest 10 day(s).
| Time | Temp. | Humidity | Pressure | Rain* | Wind** | Luminosity | Snow |
|---|---|---|---|---|---|---|---|
| 1778226970 | 35.56° C | 45% | 1002 hPa | - | - | - | - |
| 1778226365 | 35° C | 45% | 1002 hPa | - | - | - | - |
| 1778225760 | 35° C | 46% | 1002.1 hPa | - | - | - | - |
| 1778225202 | 35° C | 46% | 1002.1 hPa | - | - | - | - |
| 1778225155 | 35° C | 46% | 1002.1 hPa | - | - | - | - |
| 1778224551 | 35° C | 46% | 1002.5 hPa | - | - | - | - |
| 1778223946 | 35.56° C | 44% | 1002.5 hPa | - | - | - | - |
| 1778223341 | 35.56° C | 44% | 1002.5 hPa | - | - | - | - |
| 1778222132 | 35.56° C | 44% | 1002.5 hPa | - | - | - | - |
| 1778221527 | 35° C | 45% | 1002.8 hPa | - | - | - | - |
| 1778220922 | 35.56° C | 44% | 1002.9 hPa | - | - | - | - |
| 1778220317 | 35° C | 47% | 1002.9 hPa | - | - | - | - |
| 1778219713 | 35.56° C | 44% | 1003.1 hPa | - | - | - | - |
| 1778219108 | 35° C | 46% | 1003.2 hPa | - | - | - | - |
| 1778216689 | 35° C | 47% | 1003.5 hPa | - | - | - | - |
| 1778216084 | 35.56° C | 45% | 1003.4 hPa | - | - | - | - |
| 1778215479 | 35.56° C | 45% | 1003.6 hPa | - | - | - | - |
| 1778214874 | 36.11° C | 44% | 1003.9 hPa | - | - | - | - |
| 1778214270 | 36.11° C | 44% | 1003.9 hPa | - | - | - | - |
| 1778213665 | 36.11° C | 42% | 1003.9 hPa | - | - | - | - |
| 1778213060 | 36.67° C | 42% | 1003.9 hPa | - | - | - | - |
| 1778212455 | 36.67° C | 42% | 1004 hPa | - | - | - | - |
| 1778211850 | 36.67° C | 44% | 1004 hPa | - | - | - | - |
| 1778211245 | 36.11° C | 45% | 1003.9 hPa | - | - | - | - |
| 1778210641 | 36.11° C | 46% | 1003.8 hPa | - | - | - | - |
* Rain since midnight (hover to see other rain measurements)
** Current wind speed in m/s (hover to see current wind gust speed)